Home   Weather   Amarillo   Past weeks
Flag for USA

Past Weather in Amarillo, Texas, USA — Yesterday and Last 2 Weeks

Now
46 °F

Clear.


Feels Like: 44 °F
Forecast: 74 / 42 °F
Wind: 5 mph from South

Location: Amarillo International Airport

Current Time: Nov 19, 2019 at 2:23:07 am

Latest Report: Nov 19, 2019 at 1:53 am


Visibility: 10 mi

Pressure: 29.89 "Hg (26.09 "Hg at 1117m altitude)

Humidity: 56%

Dew Point: 31 °F

Location of AmarilloLocation

Past Weather in Amarillo — Graph

°F

Amarillo Temperature Yesterday

Maximum temperature yesterday: 74 °F (at 2:53 pm)
Minimum temperature yesterday: 36 °F (at 12:53 am)
Average temperature yesterday: 54 °F

High & Low Weather Summary for the Past Weeks

 TemperatureHumidityPressure
High75 °F (Nov 9, 1:53 pm)96% (Nov 8, 6:53 am)30.69 "Hg (Nov 8, 6:53 am)
Low9 °F (Nov 12, 4:53 am)13% (Nov 9, 3:53 pm)29.76 "Hg (Nov 10, 3:53 pm)
Average43 °F63%30.17 "Hg
* Reported Nov 4 12:53 am — Nov 19 12:53 am, Amarillo. Weather by CustomWeather, © 2019

Note: Actual official high and low records may vary slightly from our data, if they occured in-between our weather recording intervals... More about our weather records

Advertising

Amarillo Weather History for the Previous 24 Hours

Scroll right to see more
 ConditionsComfort  
Time TempWeatherWind HumidityBarometerVisibility
12:53 am
Tue, Nov 19
45 °FClear.8 mph58%29.89 "Hg10 mi
11:53 pm
Mon, Nov 18
45 °FClear.5 mph56%29.93 "Hg10 mi
10:53 pm51 °FClear.9 mph48%29.90 "Hg10 mi
9:53 pm51 °FClear.6 mph46%29.91 "Hg10 mi
8:53 pm51 °FClear.6 mph46%29.93 "Hg10 mi
7:53 pm51 °FClear.9 mph46%29.94 "Hg10 mi
6:53 pm57 °FClear.7 mph37%29.93 "Hg10 mi
5:53 pm59 °FClear.8 mph33%29.89 "Hg10 mi
4:53 pm69 °FSunny.8 mph23%29.83 "Hg7 mi
3:53 pm73 °FPassing clouds.10 mph19%29.81 "Hg7 mi
3:34 pm73 °FSunny.12 mph19%29.91 "Hg2 mi
2:53 pm74 °FSunny.9 mph17%29.82 "Hg10 mi
1:53 pm73 °FSunny.10 mph19%29.83 "Hg10 mi
12:53 pm70 °FSunny.9 mph23%29.86 "Hg10 mi
11:53 am64 °FSunny.8 mph33%29.89 "Hg10 mi
10:53 am58 °FSunny.12 mph41%29.94 "Hg10 mi
9:53 am54 °FSunny.9 mph45%29.93 "Hg10 mi
8:53 am49 °FSunny.9 mph55%29.92 "Hg10 mi
7:53 am36 °FSunny.6 mph82%29.93 "Hg10 mi
6:53 am36 °FClear.8 mph79%29.92 "Hg10 mi
5:53 am41 °FClear.10 mph70%29.89 "Hg10 mi
4:53 am46 °FClear.12 mph61%29.89 "Hg10 mi
3:53 am45 °FClear.12 mph63%29.89 "Hg10 mi
2:53 am43 °FClear.14 mph68%29.92 "Hg10 mi
Weather by CustomWeather, © 2019

See weather overview